WMT8QP LATI-LIPQ

Flight info

Callsign WMT8QP
Flight time 1h 4m
Altitude 36000
Route DIRES DCT EBELA DCT KOFER DCT RIFEN
Aircraft A321/M-SDE3FGHIRWY/LB1

Departure

Time 2026-04-23 15:36
Airport Tirana International Airport Mother Teresa (LATI)

Arrival

Time 2026-04-23 16:40
Airport Trieste Airport (LIPQ)
Time Latitude Longitude Altitude Speed Heading
2026-04-23 15:02 41.41910 19.71524 123 ft 0 kts 264°
2026-04-23 15:25 41.41911 19.71539 123 ft 3 kts 264°
2026-04-23 15:25 41.41916 19.71568 123 ft 4 kts 232°
2026-04-23 15:25 41.41935 19.71582 123 ft 4 kts 177°
2026-04-23 15:26 41.41950 19.71580 123 ft 1 kts 174°
2026-04-23 15:26 41.41951 19.71580 123 ft 0 kts 174°
2026-04-23 15:29 41.41937 19.71582 123 ft 5 kts 174°
2026-04-23 15:29 41.41871 19.71591 124 ft 11 kts 174°
2026-04-23 15:29 41.41790 19.71602 124 ft 12 kts 174°
2026-04-23 15:30 41.41709 19.71613 125 ft 12 kts 174°
2026-04-23 15:30 41.41625 19.71624 126 ft 12 kts 174°
2026-04-23 15:30 41.41540 19.71635 127 ft 12 kts 174°
2026-04-23 15:30 41.41453 19.71647 128 ft 13 kts 174°
2026-04-23 15:31 41.41366 19.71658 128 ft 13 kts 174°
2026-04-23 15:31 41.41274 19.71671 129 ft 13 kts 174°
2026-04-23 15:31 41.41182 19.71683 130 ft 14 kts 174°
2026-04-23 15:31 41.41087 19.71696 130 ft 14 kts 174°
2026-04-23 15:32 41.40989 19.71709 131 ft 14 kts 174°
2026-04-23 15:32 41.40889 19.71729 131 ft 15 kts 169°
2026-04-23 15:32 41.40787 19.71755 132 ft 15 kts 169°
2026-04-23 15:32 41.40680 19.71773 132 ft 16 kts 176°
2026-04-23 15:33 41.40568 19.71785 132 ft 16 kts 175°
2026-04-23 15:33 41.40471 19.71796 132 ft 8 kts 175°
2026-04-23 15:33 41.40408 19.71813 132 ft 10 kts 158°
2026-04-23 15:33 41.40347 19.71865 133 ft 11 kts 144°
2026-04-23 15:34 41.40284 19.71926 133 ft 12 kts 144°
2026-04-23 15:34 41.40240 19.72014 133 ft 12 kts 96°
2026-04-23 15:34 41.40246 19.72130 133 ft 13 kts 84°
2026-04-23 15:34 41.40254 19.72204 132 ft 5 kts 68°
2026-04-23 15:35 41.40291 19.72215 132 ft 6 kts 356°
2026-04-23 15:35 41.40337 19.72210 132 ft 8 kts 355°
2026-04-23 15:35 41.40475 19.72191 131 ft 48 kts 354°
2026-04-23 15:35 41.41048 19.72115 133 ft 116 kts 354°
2026-04-23 15:36 41.42047 19.71978 134 ft 169 kts 354°
2026-04-23 15:36 41.43217 19.71821 782 ft 165 kts 353°
2026-04-23 15:36 41.44355 19.71671 1434 ft 168 kts 354°
2026-04-23 15:36 41.45526 19.71529 2058 ft 174 kts 354°
2026-04-23 15:37 41.46804 19.71371 2344 ft 195 kts 354°
2026-04-23 15:37 41.48188 19.71175 2744 ft 205 kts 353°
2026-04-23 15:37 41.49674 19.70949 2988 ft 225 kts 353°
2026-04-23 15:37 41.51311 19.70716 3179 ft 247 kts 354°
2026-04-23 15:38 41.53092 19.70480 3554 ft 265 kts 354°
2026-04-23 15:38 41.54950 19.70245 4230 ft 270 kts 354°
2026-04-23 15:38 41.56839 19.70012 4950 ft 274 kts 354°
2026-04-23 15:38 41.58745 19.69770 5669 ft 277 kts 354°
2026-04-23 15:39 41.60667 19.69487 6397 ft 278 kts 349°
2026-04-23 15:39 41.62472 19.68542 6963 ft 283 kts 323°
2026-04-23 15:39 41.63797 19.66604 7561 ft 286 kts 298°
2026-04-23 15:39 41.64524 19.64106 8073 ft 291 kts 288°
2026-04-23 15:40 41.65213 19.61568 8777 ft 291 kts 290°
2026-04-23 15:40 41.65959 19.59037 9360 ft 294 kts 291°
2026-04-23 15:40 41.66731 19.56484 9918 ft 297 kts 291°
2026-04-23 15:40 41.67512 19.53897 10289 ft 307 kts 291°
2026-04-23 15:41 41.68330 19.51162 10430 ft 324 kts 291°
2026-04-23 15:41 41.69183 19.48284 10559 ft 341 kts 291°
2026-04-23 15:41 41.70068 19.45277 10798 ft 352 kts 291°
2026-04-23 15:41 41.70963 19.42207 11224 ft 356 kts 291°
2026-04-23 15:42 41.71864 19.39107 11675 ft 359 kts 291°
2026-04-23 15:42 41.72771 19.35981 12116 ft 362 kts 291°
2026-04-23 15:42 41.73686 19.32824 12540 ft 365 kts 291°
2026-04-23 15:42 41.74604 19.29653 12949 ft 367 kts 291°
2026-04-23 15:43 41.75532 19.26454 13344 ft 370 kts 291°
2026-04-23 15:43 41.76465 19.23229 13729 ft 372 kts 291°
2026-04-23 15:43 41.77401 19.19989 14100 ft 374 kts 291°
2026-04-23 15:43 41.78342 19.16728 14469 ft 377 kts 290°
2026-04-23 15:44 41.79288 19.13440 14824 ft 379 kts 290°
2026-04-23 15:44 41.80241 19.10135 15170 ft 381 kts 290°
2026-04-23 15:44 41.81199 19.06810 15507 ft 384 kts 290°
2026-04-23 15:44 41.82148 19.03507 15825 ft 386 kts 290°
2026-04-23 15:45 41.83124 19.00105 16135 ft 388 kts 290°
2026-04-23 15:45 41.84092 18.96720 16431 ft 390 kts 290°
2026-04-23 15:45 41.85052 18.93356 16718 ft 392 kts 290°
2026-04-23 15:45 41.86027 18.89936 17004 ft 394 kts 290°
2026-04-23 15:46 41.87010 18.86493 17284 ft 396 kts 290°
2026-04-23 15:46 41.87996 18.83040 17555 ft 398 kts 290°
2026-04-23 15:46 41.88989 18.79556 17829 ft 400 kts 290°
2026-04-23 15:46 41.89981 18.76057 18113 ft 401 kts 290°
2026-04-23 15:47 41.90973 18.72556 18350 ft 402 kts 290°
2026-04-23 15:47 41.92042 18.69063 18569 ft 405 kts 296°
2026-04-23 15:47 41.93545 18.65863 18799 ft 407 kts 308°
2026-04-23 15:47 41.95493 18.63104 19023 ft 409 kts 318°
2026-04-23 15:48 41.97645 18.60583 19251 ft 411 kts 318°
2026-04-23 15:48 41.99801 18.58044 19479 ft 413 kts 318°
2026-04-23 15:48 42.01960 18.55486 19702 ft 414 kts 318°
2026-04-23 15:48 42.04123 18.52914 19915 ft 416 kts 318°
2026-04-23 15:49 42.06292 18.50330 20126 ft 417 kts 318°
2026-04-23 15:49 42.08470 18.47741 20332 ft 419 kts 318°
2026-04-23 15:49 42.10663 18.45140 20533 ft 421 kts 318°
2026-04-23 15:49 42.12859 18.42535 20733 ft 422 kts 318°
2026-04-23 15:50 42.15068 18.39912 20926 ft 423 kts 318°
2026-04-23 15:50 42.17277 18.37280 21124 ft 425 kts 318°
2026-04-23 15:50 42.19496 18.34630 21308 ft 426 kts 318°
2026-04-23 15:50 42.21720 18.31976 21482 ft 428 kts 318°
2026-04-23 15:51 42.23918 18.29352 21645 ft 429 kts 318°
2026-04-23 15:51 42.26154 18.26677 21809 ft 431 kts 318°
2026-04-23 15:51 42.28398 18.23992 21972 ft 432 kts 318°
2026-04-23 15:51 42.30645 18.21301 22122 ft 433 kts 318°
2026-04-23 15:52 42.32901 18.18600 22264 ft 434 kts 318°
2026-04-23 15:52 42.35160 18.15893 22401 ft 435 kts 318°
2026-04-23 15:52 42.37424 18.13176 22533 ft 436 kts 318°
2026-04-23 15:52 42.39692 18.10447 22662 ft 437 kts 318°
2026-04-23 15:53 42.41962 18.07712 22787 ft 437 kts 318°
2026-04-23 15:53 42.44237 18.04966 22912 ft 438 kts 318°
2026-04-23 15:53 42.46514 18.02215 23039 ft 439 kts 318°
2026-04-23 15:53 42.48787 17.99466 23162 ft 439 kts 318°
2026-04-23 15:54 42.51070 17.96713 23286 ft 439 kts 318°
2026-04-23 15:54 42.53354 17.93959 23411 ft 439 kts 318°
2026-04-23 15:54 42.55638 17.91203 23536 ft 439 kts 318°
2026-04-23 15:54 42.57917 17.88444 23661 ft 439 kts 318°
2026-04-23 15:55 42.60197 17.85677 23786 ft 439 kts 317°
2026-04-23 15:55 42.62468 17.82910 23912 ft 439 kts 317°
2026-04-23 15:55 42.64744 17.80137 24037 ft 439 kts 317°
2026-04-23 15:55 42.67018 17.77370 24163 ft 439 kts 318°
2026-04-23 15:56 42.69293 17.74600 24289 ft 439 kts 317°
2026-04-23 15:56 42.71565 17.71831 24414 ft 439 kts 317°
2026-04-23 15:56 42.73833 17.69061 24540 ft 438 kts 317°
2026-04-23 15:56 42.76101 17.66286 24664 ft 438 kts 317°
2026-04-23 15:57 42.78364 17.63515 24789 ft 438 kts 317°
2026-04-23 15:57 42.80625 17.60742 24914 ft 437 kts 317°
2026-04-23 15:57 42.82887 17.57966 25039 ft 437 kts 317°
2026-04-23 15:57 42.85141 17.55196 25164 ft 437 kts 317°
2026-04-23 15:58 42.87394 17.52425 25288 ft 436 kts 317°
2026-04-23 15:58 42.89649 17.49650 25414 ft 436 kts 317°
2026-04-23 15:58 42.91897 17.46882 25539 ft 435 kts 317°
2026-04-23 15:58 42.94145 17.44115 25664 ft 435 kts 317°
2026-04-23 15:59 42.96388 17.41354 25789 ft 434 kts 317°
2026-04-23 15:59 42.98598 17.38632 25912 ft 434 kts 317°
2026-04-23 15:59 43.00840 17.35866 26038 ft 434 kts 317°
2026-04-23 15:59 43.03081 17.33094 26162 ft 433 kts 317°
2026-04-23 16:00 43.05318 17.30322 26287 ft 433 kts 317°
2026-04-23 16:00 43.07548 17.27555 26412 ft 433 kts 317°
2026-04-23 16:00 43.09777 17.24788 26536 ft 432 kts 317°
2026-04-23 16:00 43.11999 17.22023 26661 ft 432 kts 317°
2026-04-23 16:01 43.14223 17.19254 26786 ft 432 kts 317°
2026-04-23 16:01 43.16443 17.16486 26912 ft 432 kts 317°
2026-04-23 16:01 43.18664 17.13716 27036 ft 431 kts 317°
2026-04-23 16:01 43.20883 17.10950 27161 ft 431 kts 317°
2026-04-23 16:02 43.23100 17.08186 27286 ft 431 kts 317°
2026-04-23 16:02 43.25320 17.05415 27411 ft 431 kts 317°
2026-04-23 16:02 43.27532 17.02648 27536 ft 431 kts 317°
2026-04-23 16:02 43.29748 16.99874 27661 ft 430 kts 317°
2026-04-23 16:03 43.31958 16.97106 27786 ft 430 kts 317°
2026-04-23 16:03 43.34165 16.94336 27910 ft 429 kts 317°
2026-04-23 16:03 43.36367 16.91565 28035 ft 429 kts 317°
2026-04-23 16:03 43.38539 16.88832 28157 ft 429 kts 317°
2026-04-23 16:04 43.40741 16.86061 28283 ft 429 kts 317°
2026-04-23 16:04 43.42943 16.83285 28405 ft 428 kts 317°
2026-04-23 16:04 43.45138 16.80517 28530 ft 428 kts 317°
2026-04-23 16:04 43.47333 16.77746 28655 ft 428 kts 317°
2026-04-23 16:05 43.48811 16.75875 28739 ft 427 kts 317°
2026-04-23 16:05 43.51701 16.72211 28904 ft 427 kts 317°
2026-04-23 16:05 43.53883 16.69446 29032 ft 426 kts 317°
2026-04-23 16:05 43.56061 16.66682 29157 ft 425 kts 317°
2026-04-23 16:06 43.58238 16.63916 29282 ft 424 kts 317°
2026-04-23 16:06 43.60406 16.61162 29407 ft 424 kts 317°
2026-04-23 16:06 43.62572 16.58409 29531 ft 423 kts 317°
2026-04-23 16:06 43.64733 16.55656 29654 ft 422 kts 317°
2026-04-23 16:07 43.66886 16.52908 29776 ft 421 kts 317°
2026-04-23 16:07 43.70450 16.48349 29987 ft 420 kts 317°
2026-04-23 16:08 43.74757 16.42831 30010 ft 424 kts 317°
2026-04-23 16:08 43.79116 16.37254 30010 ft 429 kts 317°
2026-04-23 16:09 43.83522 16.31612 30010 ft 433 kts 317°
2026-04-23 16:09 43.87959 16.25903 30010 ft 437 kts 316°
2026-04-23 16:10 43.92425 16.20132 30008 ft 440 kts 316°
2026-04-23 16:10 43.96921 16.14317 30009 ft 443 kts 316°
2026-04-23 16:11 44.01416 16.08513 30009 ft 445 kts 316°
2026-04-23 16:11 44.05957 16.02628 30009 ft 448 kts 316°
2026-04-23 16:12 44.10511 15.96685 30010 ft 449 kts 316°
2026-04-23 16:12 44.15086 15.90713 30008 ft 451 kts 316°
2026-04-23 16:13 44.19673 15.84707 30007 ft 454 kts 316°
2026-04-23 16:13 44.26591 15.75650 30010 ft 456 kts 316°
2026-04-23 16:14 44.31214 15.69577 30009 ft 457 kts 316°
2026-04-23 16:14 44.35849 15.63465 30006 ft 459 kts 316°
2026-04-23 16:15 44.40495 15.57328 30009 ft 460 kts 316°
2026-04-23 16:15 44.45148 15.51173 30008 ft 461 kts 316°
2026-04-23 16:16 44.49807 15.44991 30009 ft 462 kts 316°
2026-04-23 16:16 44.54478 15.38780 29994 ft 464 kts 316°
2026-04-23 16:17 44.59140 15.32587 29978 ft 465 kts 316°
2026-04-23 16:17 44.63838 15.26320 29978 ft 466 kts 316°
2026-04-23 16:18 44.68532 15.20036 29977 ft 467 kts 316°
2026-04-23 16:18 44.73221 15.13718 29979 ft 467 kts 316°
2026-04-23 16:19 44.77927 15.07390 29982 ft 468 kts 316°
2026-04-23 16:19 44.82628 15.01060 29984 ft 468 kts 316°
2026-04-23 16:20 44.84973 14.97886 29867 ft 464 kts 316°
2026-04-23 16:20 44.87275 14.94765 29612 ft 453 kts 316°
2026-04-23 16:20 44.89533 14.91706 29173 ft 448 kts 316°
2026-04-23 16:20 44.91772 14.88677 28687 ft 444 kts 316°
2026-04-23 16:21 44.93994 14.85669 28215 ft 440 kts 316°
2026-04-23 16:21 44.96194 14.82684 27752 ft 436 kts 316°
2026-04-23 16:21 44.98368 14.79728 27307 ft 432 kts 315°
2026-04-23 16:21 45.00518 14.76797 26860 ft 428 kts 315°
2026-04-23 16:22 45.02650 14.73890 26426 ft 424 kts 315°
2026-04-23 16:22 45.04762 14.71008 25995 ft 421 kts 315°
2026-04-23 16:22 45.06855 14.68147 25551 ft 418 kts 315°
2026-04-23 16:22 45.08937 14.65297 25109 ft 414 kts 315°
2026-04-23 16:23 45.10998 14.62477 24662 ft 411 kts 315°
2026-04-23 16:23 45.13048 14.59672 24208 ft 408 kts 315°
2026-04-23 16:23 45.15058 14.56918 23761 ft 405 kts 315°
2026-04-23 16:23 45.17075 14.54153 23299 ft 403 kts 315°
2026-04-23 16:24 45.19079 14.51397 22836 ft 400 kts 315°
2026-04-23 16:24 45.21066 14.48658 22366 ft 397 kts 315°
2026-04-23 16:24 45.23039 14.45941 21902 ft 394 kts 315°
2026-04-23 16:24 45.24995 14.43249 21439 ft 390 kts 315°
2026-04-23 16:25 45.26938 14.40575 20979 ft 387 kts 315°
2026-04-23 16:25 45.28861 14.37919 20519 ft 384 kts 315°
2026-04-23 16:25 45.30763 14.35280 20063 ft 381 kts 315°
2026-04-23 16:25 45.32654 14.32657 19609 ft 378 kts 315°
2026-04-23 16:26 45.34527 14.30056 19159 ft 375 kts 315°
2026-04-23 16:26 45.36379 14.27485 18714 ft 371 kts 315°
2026-04-23 16:26 45.38218 14.24927 18269 ft 368 kts 315°
2026-04-23 16:26 45.40042 14.22398 17829 ft 364 kts 315°
2026-04-23 16:27 45.41845 14.19898 17394 ft 361 kts 315°
2026-04-23 16:27 45.43631 14.17411 16960 ft 357 kts 315°
2026-04-23 16:27 45.45398 14.14948 16533 ft 354 kts 315°
2026-04-23 16:27 45.47149 14.12502 16122 ft 350 kts 315°
2026-04-23 16:28 45.48881 14.10080 15688 ft 348 kts 315°
2026-04-23 16:28 45.50604 14.07673 15266 ft 345 kts 315°
2026-04-23 16:28 45.52313 14.05288 14850 ft 342 kts 315°
2026-04-23 16:28 45.54003 14.02919 14460 ft 339 kts 315°
2026-04-23 16:29 45.55655 14.00607 14041 ft 336 kts 315°
2026-04-23 16:29 45.57315 13.98283 13635 ft 333 kts 315°
2026-04-23 16:29 45.58963 13.95972 13237 ft 330 kts 315°
2026-04-23 16:29 45.60591 13.93686 12860 ft 327 kts 315°
2026-04-23 16:30 45.62206 13.91418 12452 ft 325 kts 315°
2026-04-23 16:30 45.63817 13.89154 12058 ft 323 kts 315°
2026-04-23 16:30 45.65412 13.86909 11670 ft 321 kts 315°
2026-04-23 16:30 45.66991 13.84678 11300 ft 318 kts 315°
2026-04-23 16:31 45.68532 13.82491 11092 ft 309 kts 315°
2026-04-23 16:31 45.70051 13.80339 10708 ft 307 kts 315°
2026-04-23 16:31 45.71570 13.78190 10326 ft 306 kts 315°
2026-04-23 16:31 45.73069 13.76068 9988 ft 303 kts 315°
2026-04-23 16:32 45.74561 13.73950 9612 ft 301 kts 313°
2026-04-23 16:32 45.75717 13.71494 9236 ft 297 kts 289°
2026-04-23 16:32 45.76085 13.68612 8864 ft 294 kts 272°
2026-04-23 16:32 45.76160 13.65692 8503 ft 292 kts 271°
2026-04-23 16:33 45.76206 13.62792 8136 ft 291 kts 271°
2026-04-23 16:33 45.76249 13.59890 7703 ft 292 kts 271°
2026-04-23 16:33 45.76290 13.56974 7254 ft 293 kts 271°
2026-04-23 16:33 45.76330 13.54049 6808 ft 294 kts 271°
2026-04-23 16:34 45.76371 13.51115 6362 ft 295 kts 271°
2026-04-23 16:34 45.76411 13.48176 5911 ft 295 kts 271°
2026-04-23 16:34 45.76451 13.45232 5460 ft 296 kts 270°
2026-04-23 16:34 45.76490 13.42293 5013 ft 296 kts 271°
2026-04-23 16:35 45.76529 13.39345 4567 ft 296 kts 270°
2026-04-23 16:35 45.76569 13.36398 4113 ft 296 kts 271°
2026-04-23 16:35 45.76608 13.33471 3661 ft 289 kts 270°
2026-04-23 16:35 45.76646 13.30691 3289 ft 270 kts 271°
2026-04-23 16:36 45.76682 13.28039 2939 ft 265 kts 271°
2026-04-23 16:36 45.76976 13.25514 2862 ft 252 kts 297°
2026-04-23 16:36 45.78111 13.23761 2880 ft 237 kts 326°
2026-04-23 16:36 45.79623 13.22910 2902 ft 230 kts 356°
2026-04-23 16:37 45.81153 13.23340 2905 ft 224 kts 28°
2026-04-23 16:37 45.82300 13.24816 2744 ft 224 kts 57°
2026-04-23 16:37 45.82841 13.26857 2500 ft 219 kts 84°
2026-04-23 16:37 45.82864 13.29031 2226 ft 218 kts 91°
2026-04-23 16:38 45.82853 13.31151 1959 ft 204 kts 91°
2026-04-23 16:38 45.82845 13.33106 1679 ft 189 kts 91°
2026-04-23 16:38 45.82838 13.34906 1447 ft 173 kts 91°
2026-04-23 16:38 45.82831 13.36550 1229 ft 159 kts 91°
2026-04-23 16:39 45.82825 13.38103 1018 ft 153 kts 91°
2026-04-23 16:39 45.82820 13.39619 806 ft 151 kts 91°
2026-04-23 16:39 45.82813 13.41120 613 ft 150 kts 91°
2026-04-23 16:39 45.82805 13.42614 427 ft 149 kts 91°
2026-04-23 16:40 45.82797 13.44082 223 ft 149 kts 91°
2026-04-23 16:40 45.82797 13.45580 57 ft 144 kts 92°
2026-04-23 16:40 45.82786 13.46821 46 ft 92 kts 91°
2026-04-23 16:40 45.82782 13.47368 48 ft 39 kts 90°
2026-04-23 16:41 45.82780 13.47584 48 ft 9 kts 93°
2026-04-23 16:41 45.82760 13.47651 48 ft 6 kts 130°
2026-04-23 16:41 45.82734 13.47686 48 ft 4 kts 136°
2026-04-23 16:41 45.82714 13.47713 48 ft 4 kts 140°
2026-04-23 16:42 45.82685 13.47747 47 ft 6 kts 141°
2026-04-23 16:42 45.82644 13.47791 47 ft 8 kts 142°
2026-04-23 16:42 45.82597 13.47847 47 ft 10 kts 140°
2026-04-23 16:42 45.82542 13.47912 47 ft 11 kts 140°
2026-04-23 16:43 45.82480 13.47986 47 ft 12 kts 140°
2026-04-23 16:43 45.82412 13.48068 47 ft 14 kts 139°
2026-04-23 16:43 45.82337 13.48161 47 ft 15 kts 138°
2026-04-23 16:43 45.82274 13.48242 47 ft 10 kts 136°
2026-04-23 16:44 45.82261 13.48338 47 ft 11 kts 82°
2026-04-23 16:44 45.82274 13.48450 47 ft 12 kts 80°
2026-04-23 16:44 45.82288 13.48542 47 ft 7 kts 78°
2026-04-23 16:44 45.82268 13.48587 47 ft 6 kts 140°
2026-04-23 16:45 45.82245 13.48609 47 ft 2 kts 147°
2026-04-23 16:45 45.82237 13.48617 47 ft 1 kts 147°
2026-04-23 16:45 45.82236 13.48617 47 ft 0 kts 147°